This demonstration page uses our WeatherBlox Daily Observations layout. Learn more.

Left ArrowRight Arrow

39.01783, -85.05884

Hourly Observations for August 2, 2022

Temp ( °F °C ) Dew Point ( °F °C ) Humidity (%) Winds ( mph kmh ) Pressure ( in mb ) Visibility ( mi km ) Precip ( " mm )
12:52 am 00:52 Partly Cloudy 77 25 75 23.9 94 94 W 9 15 29.90 1013 8 13 0.00 0.00
1:52 am 01:52 Partly Cloudy 76 24.4 73 22.8 91 91 W 8 13 29.90 1013 8 13 0.00 0.00
2:52 am 02:52 Partly Cloudy 74 23.3 73 22.8 97 97 WSW 7 11 29.91 1013 8 13 0.00 0.00
3:52 am 03:52 Mostly Cloudy 73 22.8 71 21.7 94 94 WSW 8 13 29.93 1014 9 14 0.00 0.00
4:52 am 04:52 Cloudy 72 22.2 70 21.1 94 94 SW 9 15 29.95 1014 10 16 0.00 0.00
5:52 am 05:52 Partly Cloudy 71 21.7 69 20.6 94 94 WSW 6 9 29.97 1015 10 16 0.00 0.00
6:52 am 06:52 Mostly Cloudy 69 20.6 68 20 96 96 WSW 3 6 29.97 1015 10 16 0.00 0.00
7:52 am 07:52 Mostly Cloudy 72 22.2 69 20.6 91 91 WSW 3 6 29.98 1015 10 16 0.00 0.00
8:52 am 08:52 Cloudy 73 22.8 70 21.1 90 90 W 7 11 30.00 1016 10 16 0.00 0.00
9:52 am 09:52 Mostly Cloudy 75 23.9 72 22.2 90 90 W 10 17 30.01 1016 10 16 0.00 0.00
10:52 am 10:52 Cloudy 76 24.4 72 22.2 88 88 W 10 17 30.01 1016 10 16 0.00 0.00
11:52 am 11:52 Cloudy 78 25.6 73 22.8 85 85 W 12 19 30.02 1017 10 16 0.00 0.00
12:52 pm 12:52 Cloudy 80 26.7 72 22.2 76 76 W 7 11 30.01 1016 10 16 0.00 0.00
1:52 pm 13:52 Cloudy 82 27.8 73 22.8 74 74 NW 3 6 30.00 1016 10 16 0.00 0.00
2:52 pm 14:52 Cloudy 84 28.9 72 22.2 67 67 WNW 9 15 29.98 1015 10 16 0.00 0.00
3:52 pm 15:52 Cloudy 84 28.9 72 22.2 67 67 NW 13 20 29.98 1015 10 16 0.00 0.00
4:52 pm 16:52 Mostly Cloudy 84 28.9 69 20.6 61 61 WNW 12 19 29.97 1015 10 16 0.00 0.00
5:52 pm 17:52 Partly Cloudy 85 29.4 71 21.7 63 63 W 9 15 29.96 1015 10 16 0.00 0.00
6:52 pm 18:52 Mostly Cloudy 82 27.8 70 21.1 67 67 W 9 15 29.96 1015 10 16 0.00 0.00
7:52 pm 19:52 Partly Cloudy 81 27.2 70 21.1 69 69 W 6 9 29.96 1015 10 16 0.00 0.00
8:52 pm 20:52 Partly Cloudy 79 26.1 72 22.2 79 79 WSW 6 9 29.96 1015 10 16 0.00 0.00
9:52 pm 21:52 Mostly Clear 75 23.9 72 22.2 90 90 SW 5 7 29.98 1015 10 16 0.00 0.00
10:52 pm 22:52 Mostly Clear 74 23.3 72 22.2 94 94 SSW 3 6 29.99 1016 10 16 0.00 0.00
11:52 pm 23:52 Mostly Clear 72 22.2 70 21.1 94 94 SW 6 9 29.98 1015 10 16 0.00 0.00

Powered by AerisWeather